Content
SEND FEEDBACK

Daily
Averages
Monthly
Summary
France

BIARRITZ, FRANCE


Home > Europe > France
Elevation: 246 feet     Latitude: 43 28N     Longitude: 001 31W

WEATHER
 
SELECT A DAY
Number of Records: 198,785;   Date Range: 7/1/96 - 10/24/14
 
SHARE

PRINT THIS DATA

[ ← Previous Day ]
WEATHER ALMANAC - APRIL 7, 2013
[ Next Day → ]
[ °C ]   °F
Weather ElementAverageHighLow
Temperature48.7 °F55.4 °F (3:00 pm)42.8 °F (2:30 am)
Dewpoint38.6 °F42.8 °F (11:00 pm)35.6 °F (2:00 pm)
Humidity69.3 %87 % (2:30 am)51 % (2:00 pm)
Barometer30.03 in30.21 in (12:30 am)29.86 in (8:30 pm)
Wind Speed4.7 mph11.5 mph (9:00 am)
Weather ElementAverage
Visibility4.2 mi
Wind DirectionENE (79.6 °)

Weather ElementTotal
Precipitation---
Heating Degree Days15.9 (Base 65)
Averaged from 47 records on April 7, 2013
WEATHER CONDITIONS BREAKOUT
WIND DIRECTION BREAKOUT
WEATHER BY HOUR - APRIL 7, 2013
[ °C ]   °F
Local TimeTemperatureDewpointHumidityBarometerVisibilityWind DirectionWind SpeedGust SpeedPrecipitationEventsConditions
12:30 AM46.4 °F39.2 °F76 %30.21 in3.1 miEast (80°)4.6 mphOvercast
1:00 AM44.6 °F39.2 °F81 %30.21 in3.1 miEast (100°)3.5 mphOvercast
1:30 AM44.6 °F39.2 °F81 %30.21 in3.1 miEast (80°)4.6 mphOvercast
2:00 AM44.6 °F39.2 °F81 %30.21 in3.1 miVariable2.3 mphOvercast
2:30 AM42.8 °F39.2 °F87 %30.18 in3.1 miVariable3.5 mphOvercast
3:00 AM42.8 °F37.4 °F81 %30.18 in3.1 miESE (110°)3.5 mphOvercast
3:30 AM42.8 °F39.2 °F87 %30.18 in3.1 miEast (100°)3.5 mphOvercast
4:00 AM42.8 °F39.2 °F87 %30.15 in3.1 miEast (100°)3.5 mphOvercast
4:30 AM42.8 °F37.4 °F81 %30.15 in3.1 miVariable3.5 mphOvercast
5:00 AM42.8 °F37.4 °F81 %30.15 in3.1 miEast (100°)4.6 mphOvercast
5:30 AM42.8 °F37.4 °F81 %30.12 inEast (90°)4.6 mphOvercast
6:00 AM42.8 °F37.4 °F81 %30.12 in2.5 miEast (80°)4.6 mphMostly Cloudy
6:30 AM42.8 °F37.4 °F81 %30.12 in2.5 miENE (60°)6.9 mphMostly Cloudy
7:00 AM42.8 °F39.2 °F87 %30.12 in2.5 miENE (60°)6.9 mphMostly Cloudy
7:30 AM42.8 °F39.2 °F87 %30.12 inENE (60°)6.9 mphMostly Cloudy
8:00 AM42.8 °F37.4 °F81 %30.12 in2.5 miENE (70°)8.1 mphMostly Cloudy
8:30 AM42.8 °F37.4 °F81 %30.09 in2.5 miEast (80°)9.2 mphMostly Cloudy
9:00 AM42.8 °F37.4 °F81 %30.09 in2.8 miEast (90°)11.5 mphMostly Cloudy
9:30 AM44.6 °F37.4 °F76 %30.09 in3.1 miEast (100°)10.4 mphMostly Cloudy
10:00 AM46.4 °F37.4 °F71 %30.09 in3.7 miEast (100°)10.4 mphFogFog
10:30 AM46.4 °F37.4 °F71 %30.06 in5.0 miEast (90°)9.2 mphFogMostly Cloudy
11:00 AM48.2 °F37.4 °F66 %30.06 in3.7 miEast (100°)9.2 mphMostly Cloudy
11:30 AM50.0 °F39.2 °F66 %30.06 in3.7 miEast (90°)9.2 mphMostly Cloudy
12:00 PM50.0 °F37.4 °F62 %30.04 in5.0 miSE (140°)6.9 mph
12:30 PM51.8 °F37.4 °F58 %30.04 inSE (130°)5.8 mphClear
1:00 PM51.8 °F37.4 °F58 %30.01 inEast (90°)6.9 mphClear
1:30 PM51.8 °F37.4 °F58 %30.01 inVariable4.6 mphClear
2:00 PM53.6 °F35.6 °F51 %29.98 inESE (120°)5.8 mphClear
2:30 PM53.6 °F35.6 °F51 %29.98 inVariable4.6 mphClear
3:00 PM55.4 °F37.4 °F51 %29.98 inVariable2.3 mphClear
3:30 PM53.6 °F37.4 °F54 %29.95 inNNE (20°)3.5 mphClear
4:00 PM53.6 °F39.2 °F58 %29.95 inNNW (330°)5.8 mphClear
4:30 PM55.4 °F37.4 °F51 %29.95 inVariable1.2 mphClear
5:00 PM55.4 °F37.4 °F51 %29.92 inVariable3.5 mphClear
5:30 PM55.4 °F37.4 °F51 %29.92 inWest (270°)3.5 mphClear
6:00 PM53.6 °F39.2 °F58 %29.92 inWNW (290°)4.6 mphClear
6:30 PM53.6 °F39.2 °F58 %29.92 in6.2 miWNW (290°)3.5 mph
7:00 PM53.6 °F41.0 °F62 %29.89 in6.2 miVariable1.2 mph
7:30 PM55.4 °F41.0 °F58 %29.89 in6.2 miVariable1.2 mph
8:00 PM55.4 °F41.0 °F58 %29.89 in6.2 miCalm
8:30 PM53.6 °F39.2 °F58 %29.86 in6.2 miCalm
9:00 PM51.8 °F41.0 °F67 %29.86 in6.2 miNorth (10°)3.5 mphOvercast
9:30 PM51.8 °F41.0 °F67 %29.86 in6.2 miVariable3.5 mphOvercast
10:00 PM51.8 °F41.0 °F67 %29.86 in6.2 miNW (310°)3.5 mphOvercast
10:30 PM51.8 °F41.0 °F67 %29.86 in6.2 miVariable2.3 mphRainLight Rain
11:00 PM50.0 °F42.8 °F76 %29.86 in6.2 miCalmMostly Cloudy
11:30 PM50.0 °F42.8 °F76 %29.86 in6.2 miCalmOvercast
Hourly data recorded from LFBZ, located miles away from Biarritz, France







STORIES FROM OUR PARTNERS